Time,TemperatureF,DewpointF,PressureIn,WindDirection,WindDirectionDegrees,WindSpeedMPH,WindSpeedGustMPH,Humidity,HourlyPrecipIn,Conditions,Clouds,dailyrainin,SoftwareType,DateUTC
2013-09-22 00:01:00,71.8,56.7,31.03,East,97,11.0,17.0,59,0.00,,,0.00,meteohub,2013-09-22 04:01:00,
2013-09-22 00:02:00,71.8,56.1,31.03,NE,54,12.0,17.0,58,0.00,,,0.00,meteohub,2013-09-22 04:02:00,
2013-09-22 00:04:00,71.8,56.1,31.03,East,83,8.0,16.0,58,0.00,,,0.00,meteohub,2013-09-22 04:04:00,
2013-09-22 00:05:00,71.8,56.1,31.03,ESE,112,10.0,16.0,58,0.00,,,0.00,meteohub,2013-09-22 04:05:00,
2013-09-22 00:10:00,71.8,56.1,31.03,ENE,78,10.0,16.0,58,0.00,,,0.00,meteohub,2013-09-22 04:10:00,
2013-09-22 00:15:00,71.8,56.1,31.03,East,96,12.0,16.0,58,0.00,,,0.00,meteohub,2013-09-22 04:15:00,
2013-09-22 00:20:00,71.8,56.1,31.03,ENE,78,12.0,16.0,58,0.00,,,0.00,meteohub,2013-09-22 04:20:00,
2013-09-22 00:26:00,72.0,56.3,31.03,ENE,61,11.0,16.0,58,0.00,,,0.00,meteohub,2013-09-22 04:26:00,
2013-09-22 00:31:00,72.0,56.3,31.03,ESE,122,11.0,14.0,58,0.00,,,0.00,meteohub,2013-09-22 04:31:00,
2013-09-22 00:36:00,72.0,56.8,31.03,ENE,66,8.0,14.0,59,0.00,,,0.00,meteohub,2013-09-22 04:36:00,
2013-09-22 00:41:00,72.0,57.4,31.03,East,85,8.0,15.0,60,0.00,,,0.00,meteohub,2013-09-22 04:41:00,
2013-09-22 00:46:00,72.0,57.4,31.03,East,89,11.0,15.0,60,0.00,,,0.00,meteohub,2013-09-22 04:46:00,
2013-09-22 00:52:00,72.0,57.7,31.03,ESE,103,12.0,15.0,61,0.00,,,0.00,meteohub,2013-09-22 04:52:00,
2013-09-22 00:57:00,72.0,57.7,31.03,East,89,10.0,15.0,61,0.00,,,0.00,meteohub,2013-09-22 04:57:00,
2013-09-22 01:02:00,72.0,57.7,31.03,East,97,12.0,15.0,61,0.00,,,0.00,meteohub,2013-09-22 05:02:00,
2013-09-22 01:07:00,72.0,57.7,31.03,ENE,68,11.0,17.0,61,0.00,,,0.00,meteohub,2013-09-22 05:07:00,
2013-09-22 01:12:00,72.0,57.7,31.03,ENE,71,12.0,17.0,61,0.00,,,0.00,meteohub,2013-09-22 05:12:00,
2013-09-22 01:17:00,72.0,57.7,31.03,NE,56,15.0,15.0,61,0.00,,,0.00,meteohub,2013-09-22 05:17:00,
2013-09-22 01:23:00,72.0,57.4,31.03,ENE,70,13.0,15.0,60,0.00,,,0.00,meteohub,2013-09-22 05:23:00,
2013-09-22 01:28:00,72.0,56.8,31.03,ESE,107,11.0,15.0,59,0.00,,,0.00,meteohub,2013-09-22 05:28:00,
2013-09-22 01:33:00,72.1,56.1,31.03,ENE,76,13.0,15.0,57,0.00,,,0.00,meteohub,2013-09-22 05:33:00,
2013-09-22 01:38:00,72.1,55.6,31.03,ENE,67,12.0,17.0,56,0.00,,,0.00,meteohub,2013-09-22 05:38:00,
2013-09-22 01:43:00,72.1,55.6,31.03,East,99,9.0,17.0,56,0.00,,,0.00,meteohub,2013-09-22 05:43:00,
2013-09-22 01:49:00,72.1,55.6,31.03,East,82,15.0,17.0,56,0.00,,,0.00,meteohub,2013-09-22 05:49:00,
2013-09-22 01:54:00,72.1,55.6,31.03,East,83,11.0,16.0,56,0.00,,,0.00,meteohub,2013-09-22 05:54:00,
2013-09-22 01:59:00,72.1,55.0,31.03,East,90,13.0,16.0,55,0.00,,,0.00,meteohub,2013-09-22 05:59:00,
2013-09-22 02:05:00,72.1,55.0,31.03,East,82,15.0,19.0,55,0.00,,,0.00,meteohub,2013-09-22 06:05:00,
2013-09-22 02:10:00,72.1,55.0,31.03,ESE,103,13.0,19.0,55,0.00,,,0.00,meteohub,2013-09-22 06:10:00,
2013-09-22 02:15:00,72.1,54.5,31.03,East,94,13.0,19.0,54,0.00,,,0.00,meteohub,2013-09-22 06:15:00,
2013-09-22 02:20:00,72.1,54.5,31.03,East,98,15.0,19.0,54,0.00,,,0.00,meteohub,2013-09-22 06:20:00,
2013-09-22 02:26:00,72.3,54.1,31.03,East,83,10.0,19.0,53,0.00,,,0.00,meteohub,2013-09-22 06:26:00,
2013-09-22 02:31:00,72.3,53.8,31.03,ESE,114,15.0,19.0,52,0.00,,,0.00,meteohub,2013-09-22 06:31:00,
2013-09-22 02:36:00,72.3,53.8,31.03,ESE,117,13.0,20.0,52,0.00,,,0.00,meteohub,2013-09-22 06:36:00,
2013-09-22 02:41:00,72.3,53.8,31.03,East,81,11.0,20.0,52,0.00,,,0.00,meteohub,2013-09-22 06:41:00,
2013-09-22 02:46:00,72.3,53.8,31.03,ESE,103,13.0,18.0,52,0.00,,,0.00,meteohub,2013-09-22 06:46:00,
2013-09-22 02:52:00,72.3,53.8,31.03,East,85,17.0,18.0,52,0.00,,,0.00,meteohub,2013-09-22 06:52:00,
2013-09-22 02:57:00,72.5,54.0,31.03,ESE,111,20.0,20.0,52,0.00,,,0.00,meteohub,2013-09-22 06:57:00,
2013-09-22 03:02:00,72.7,54.0,31.03,ESE,104,15.0,19.0,52,0.00,,,0.00,meteohub,2013-09-22 07:02:00,
2013-09-22 03:07:00,72.7,54.0,31.03,ESE,114,15.0,23.0,52,0.00,,,0.00,meteohub,2013-09-22 07:07:00,
2013-09-22 03:12:00,72.5,54.0,31.03,East,91,17.0,23.0,52,0.00,,,0.00,meteohub,2013-09-22 07:12:00,
2013-09-22 03:17:00,72.3,54.1,31.03,East,92,15.0,21.0,53,0.00,,,0.00,meteohub,2013-09-22 07:17:00,
2013-09-22 03:22:00,72.3,54.1,31.03,ESE,102,17.0,21.0,53,0.00,,,0.00,meteohub,2013-09-22 07:22:00,
2013-09-22 03:27:00,72.1,54.1,31.03,East,99,13.0,21.0,53,0.00,,,0.00,meteohub,2013-09-22 07:27:00,
2013-09-22 03:32:00,72.1,54.1,31.03,East,97,12.0,21.0,53,0.00,,,0.00,meteohub,2013-09-22 07:32:00,
2013-09-22 03:37:00,72.0,53.4,31.03,East,86,19.0,22.0,52,0.00,,,0.00,meteohub,2013-09-22 07:37:00,
2013-09-22 03:42:00,72.0,54.0,31.03,ESE,103,16.0,22.0,53,0.00,,,0.00,meteohub,2013-09-22 07:42:00,
2013-09-22 03:47:00,72.0,53.4,31.03,East,91,15.0,19.0,52,0.00,,,0.00,meteohub,2013-09-22 07:47:00,
2013-09-22 03:52:00,71.8,53.2,31.03,ESE,114,13.0,19.0,52,0.00,,,0.00,meteohub,2013-09-22 07:52:00,
2013-09-22 03:57:00,71.8,53.2,31.03,ESE,114,15.0,19.0,52,0.00,,,0.00,meteohub,2013-09-22 07:57:00,
2013-09-22 04:02:00,72.0,54.0,31.03,ESE,112,11.0,19.0,53,0.00,,,0.00,meteohub,2013-09-22 08:02:00,
2013-09-22 04:07:00,72.0,54.0,31.03,ESE,123,15.0,21.0,53,0.00,,,0.00,meteohub,2013-09-22 08:07:00,
2013-09-22 04:12:00,72.0,54.9,31.03,ESE,119,13.0,21.0,55,0.00,,,0.00,meteohub,2013-09-22 08:12:00,
2013-09-22 04:17:00,72.0,54.9,31.03,East,90,13.0,21.0,55,0.00,,,0.00,meteohub,2013-09-22 08:17:00,
2013-09-22 04:22:00,72.0,55.4,31.03,East,96,15.0,21.0,56,0.00,,,0.00,meteohub,2013-09-22 08:22:00,
2013-09-22 04:28:00,72.0,55.9,31.03,East,95,13.0,19.0,57,0.00,,,0.00,meteohub,2013-09-22 08:28:00,
2013-09-22 04:33:00,72.1,56.1,31.03,East,93,13.0,19.0,57,0.00,,,0.00,meteohub,2013-09-22 08:33:00,
2013-09-22 04:38:00,72.1,56.1,31.03,ESE,104,13.0,19.0,57,0.00,,,0.00,meteohub,2013-09-22 08:38:00,
2013-09-22 04:43:00,72.1,56.1,31.03,East,99,17.0,19.0,57,0.00,,,0.00,meteohub,2013-09-22 08:43:00,
2013-09-22 04:49:00,72.1,56.5,31.03,East,84,13.0,19.0,58,0.00,,,0.00,meteohub,2013-09-22 08:49:00,
2013-09-22 04:54:00,72.1,57.0,31.03,East,88,13.0,19.0,59,0.00,,,0.00,meteohub,2013-09-22 08:54:00,
2013-09-22 04:59:00,72.1,57.6,31.03,East,81,11.0,21.0,60,0.00,,,0.00,meteohub,2013-09-22 08:59:00,
2013-09-22 05:04:00,72.1,57.9,31.03,East,99,11.0,21.0,61,0.00,,,0.00,meteohub,2013-09-22 09:04:00,
2013-09-22 05:10:00,72.1,57.9,31.03,ENE,72,15.0,16.0,61,0.00,,,0.00,meteohub,2013-09-22 09:10:00,
2013-09-22 05:15:00,72.1,57.9,31.03,East,99,11.0,16.0,61,0.00,,,0.00,meteohub,2013-09-22 09:15:00,
2013-09-22 05:20:00,72.1,58.5,31.03,East,85,13.0,16.0,62,0.00,,,0.00,meteohub,2013-09-22 09:20:00,
2013-09-22 05:25:00,72.3,58.6,31.03,East,86,15.0,17.0,62,0.00,,,0.00,meteohub,2013-09-22 09:25:00,
2013-09-22 05:31:00,72.3,58.1,31.03,East,98,17.0,17.0,61,0.00,,,0.00,meteohub,2013-09-22 09:31:00,
2013-09-22 05:36:00,72.3,57.7,31.03,ESE,102,12.0,18.0,60,0.00,,,0.00,meteohub,2013-09-22 09:36:00,
2013-09-22 05:41:00,72.5,57.7,31.03,East,90,18.0,18.0,60,0.00,,,0.00,meteohub,2013-09-22 09:41:00,
2013-09-22 05:47:00,72.7,57.6,31.03,ESE,116,15.0,23.0,59,0.00,,,0.00,meteohub,2013-09-22 09:47:00,
2013-09-22 05:52:00,72.7,57.0,31.03,ESE,119,15.0,23.0,58,0.00,,,0.00,meteohub,2013-09-22 09:52:00,
2013-09-22 05:57:00,72.7,56.5,31.03,East,98,15.0,23.0,57,0.00,,,0.00,meteohub,2013-09-22 09:57:00,
2013-09-22 06:02:00,72.7,56.1,31.03,East,100,15.0,21.0,56,0.00,,,0.00,meteohub,2013-09-22 10:02:00,
2013-09-22 06:07:00,72.9,56.3,31.03,ESE,102,17.0,21.0,56,0.00,,,0.00,meteohub,2013-09-22 10:07:00,
2013-09-22 06:13:00,72.9,55.8,31.03,East,99,17.0,20.0,55,0.00,,,0.00,meteohub,2013-09-22 10:13:00,
2013-09-22 06:18:00,72.9,55.8,31.03,ESE,106,17.0,20.0,55,0.00,,,0.00,meteohub,2013-09-22 10:18:00,
2013-09-22 06:23:00,72.9,55.8,31.03,East,81,15.0,20.0,55,0.00,,,0.00,meteohub,2013-09-22 10:23:00,
2013-09-22 06:28:00,72.9,55.8,31.03,East,101,13.0,20.0,55,0.00,,,0.00,meteohub,2013-09-22 10:28:00,
2013-09-22 06:34:00,72.7,55.6,31.03,East,101,16.0,20.0,55,0.00,,,0.00,meteohub,2013-09-22 10:34:00,
2013-09-22 06:39:00,72.7,56.1,31.03,East,93,13.0,19.0,56,0.00,,,0.00,meteohub,2013-09-22 10:39:00,
2013-09-22 06:44:00,72.7,56.1,31.03,East,93,13.0,19.0,56,0.00,,,0.00,meteohub,2013-09-22 10:44:00,
2013-09-22 06:50:00,72.7,56.1,31.03,East,89,13.0,18.0,56,0.00,,,0.00,meteohub,2013-09-22 10:50:00,
2013-09-22 07:01:00,72.3,55.2,31.03,ESE,106,13.0,18.0,55,0.00,,,0.00,meteohub,2013-09-22 11:01:00,
2013-09-22 07:06:00,72.5,56.5,31.03,ESE,114,13.0,18.0,57,0.00,,,0.00,meteohub,2013-09-22 11:06:00,
2013-09-22 07:11:00,72.5,56.8,31.03,NE,49,14.0,18.0,58,0.00,,,0.00,meteohub,2013-09-22 11:11:00,
2013-09-22 07:16:00,72.3,56.7,31.03,East,100,13.0,18.0,58,0.00,,,0.00,meteohub,2013-09-22 11:16:00,
2013-09-22 07:21:00,72.3,56.7,31.03,East,87,16.0,18.0,58,0.00,,,0.00,meteohub,2013-09-22 11:21:00,
2013-09-22 07:27:00,72.3,56.7,31.03,East,84,15.0,18.0,58,0.00,,,0.00,meteohub,2013-09-22 11:27:00,
2013-09-22 07:32:00,72.1,56.5,31.03,East,99,15.0,18.0,58,0.00,,,0.00,meteohub,2013-09-22 11:32:00,
2013-09-22 07:37:00,72.1,56.5,31.03,East,91,13.0,18.0,58,0.00,,,0.00,meteohub,2013-09-22 11:37:00,
2013-09-22 07:42:00,72.1,56.5,31.03,ESE,103,13.0,17.0,58,0.00,,,0.00,meteohub,2013-09-22 11:42:00,
2013-09-22 07:47:00,72.3,57.2,31.03,East,101,11.0,17.0,59,0.00,,,0.00,meteohub,2013-09-22 11:47:00,
2013-09-22 07:52:00,72.5,57.7,31.03,East,92,12.0,17.0,60,0.00,,,0.00,meteohub,2013-09-22 11:52:00,
2013-09-22 07:57:00,72.7,57.6,31.03,ESE,106,18.0,18.0,59,0.00,,,0.00,meteohub,2013-09-22 11:57:00,
2013-09-22 08:02:00,72.9,57.2,31.03,East,98,13.0,17.0,58,0.00,,,0.00,meteohub,2013-09-22 12:02:00,
2013-09-22 08:07:00,72.9,58.1,31.03,East,94,21.0,28.0,60,0.00,,,0.00,meteohub,2013-09-22 12:07:00,
2013-09-22 08:13:00,72.5,57.7,31.03,SE,146,23.0,28.0,60,0.00,,,0.00,meteohub,2013-09-22 12:13:00,
2013-09-22 08:18:00,72.1,58.8,31.03,SE,145,23.0,26.0,63,0.00,,,0.00,meteohub,2013-09-22 12:18:00,
2013-09-22 08:23:00,71.8,59.0,31.03,ESE,102,14.0,26.0,64,0.00,,,0.00,meteohub,2013-09-22 12:23:00,
2013-09-22 08:28:00,72.0,59.9,31.03,ESE,102,16.0,24.0,66,0.00,,,0.00,meteohub,2013-09-22 12:28:00,
2013-09-22 08:34:00,72.1,61.3,31.03,SSE,148,15.0,24.0,69,0.00,,,0.00,meteohub,2013-09-22 12:34:00,
2013-09-22 08:39:00,72.0,60.8,31.03,SE,129,14.0,24.0,68,0.00,,,0.00,meteohub,2013-09-22 12:39:00,
2013-09-22 08:44:00,72.0,60.8,31.03,SSE,162,16.0,23.0,68,0.00,,,0.00,meteohub,2013-09-22 12:44:00,
2013-09-22 08:50:00,72.1,61.3,31.03,SSE,166,15.0,23.0,69,0.00,,,0.00,meteohub,2013-09-22 12:50:00,
2013-09-22 08:55:00,72.0,61.2,31.03,SSE,151,15.0,22.0,69,0.00,,,0.00,meteohub,2013-09-22 12:55:00,
2013-09-22 09:00:00,72.0,61.7,31.03,SE,144,18.0,22.0,70,0.00,,,0.00,meteohub,2013-09-22 13:00:00,
2013-09-22 09:05:00,71.8,61.9,31.03,SSE,151,14.0,22.0,71,0.00,,,0.00,meteohub,2013-09-22 13:05:00,
2013-09-22 09:11:00,71.8,61.9,31.03,SSE,159,14.0,24.0,71,0.00,,,0.00,meteohub,2013-09-22 13:11:00,
2013-09-22 09:16:00,71.6,61.3,31.03,South,178,18.0,21.0,70,0.04,,,0.00,meteohub,2013-09-22 13:16:00,
2013-09-22 09:21:00,71.4,61.9,31.03,SE,146,15.0,21.0,72,0.04,,,0.04,meteohub,2013-09-22 13:21:00,
2013-09-22 09:27:00,71.4,62.8,31.03,SE,136,11.0,21.0,74,0.04,,,0.04,meteohub,2013-09-22 13:27:00,
2013-09-22 09:32:00,71.4,62.2,31.03,SSE,158,10.0,20.0,73,0.04,,,0.04,meteohub,2013-09-22 13:32:00,
2013-09-22 09:37:00,71.4,63.1,31.03,SE,138,15.0,20.0,75,0.04,,,0.04,meteohub,2013-09-22 13:37:00,
2013-09-22 09:42:00,71.6,63.3,31.03,SE,145,15.0,17.0,75,0.04,,,0.04,meteohub,2013-09-22 13:42:00,
2013-09-22 09:47:00,71.6,63.3,31.03,SE,144,13.0,17.0,75,0.04,,,0.04,meteohub,2013-09-22 13:47:00,
2013-09-22 09:52:00,71.8,64.2,31.03,SSE,154,15.0,20.0,77,0.04,,,0.04,meteohub,2013-09-22 13:52:00,
2013-09-22 09:57:00,71.6,63.7,31.03,SSE,153,15.0,20.0,76,0.04,,,0.04,meteohub,2013-09-22 13:57:00,
2013-09-22 10:02:00,71.6,63.7,31.03,SSE,163,17.0,20.0,76,0.04,,,0.04,meteohub,2013-09-22 14:02:00,
2013-09-22 10:07:00,71.6,64.0,31.03,SSE,147,15.0,21.0,77,0.04,,,0.04,meteohub,2013-09-22 14:07:00,
2013-09-22 10:12:00,71.4,63.9,31.03,SE,132,13.0,21.0,77,0.04,,,0.04,meteohub,2013-09-22 14:12:00,
2013-09-22 10:18:00,71.6,64.0,31.03,SSE,155,9.0,21.0,77,0.00,,,0.04,meteohub,2013-09-22 14:18:00,
2013-09-22 10:23:00,71.4,64.2,31.03,SE,140,11.0,21.0,78,0.00,,,0.04,meteohub,2013-09-22 14:23:00,
2013-09-22 10:28:00,71.6,64.8,31.03,SE,128,15.0,16.0,79,0.00,,,0.04,meteohub,2013-09-22 14:28:00,
2013-09-22 10:34:00,71.4,64.9,31.03,SSE,156,12.0,16.0,80,0.00,,,0.04,meteohub,2013-09-22 14:34:00,
2013-09-22 10:39:00,71.6,65.1,31.03,SSE,163,8.0,16.0,80,0.00,,,0.04,meteohub,2013-09-22 14:39:00,
2013-09-22 10:44:00,71.6,65.1,31.03,SE,130,10.0,17.0,80,0.00,,,0.04,meteohub,2013-09-22 14:44:00,
2013-09-22 10:50:00,71.6,65.1,31.03,SSE,156,9.0,17.0,80,0.00,,,0.04,meteohub,2013-09-22 14:50:00,
2013-09-22 10:55:00,71.8,65.7,31.03,SE,143,10.0,15.0,81,0.00,,,0.04,meteohub,2013-09-22 14:55:00,
2013-09-22 11:00:00,71.6,65.1,31.03,SSE,167,8.0,15.0,80,0.00,,,0.04,meteohub,2013-09-22 15:00:00,
2013-09-22 11:06:00,71.8,65.7,31.03,SSE,164,13.0,15.0,81,0.00,,,0.04,meteohub,2013-09-22 15:06:00,
2013-09-22 11:11:00,71.8,65.7,31.03,SSW,194,10.0,13.0,81,0.00,,,0.04,meteohub,2013-09-22 15:11:00,
2013-09-22 11:16:00,71.6,65.1,31.03,South,176,9.0,13.0,80,0.00,,,0.04,meteohub,2013-09-22 15:16:00,
2013-09-22 11:21:00,71.6,65.1,31.03,South,178,8.0,13.0,80,0.00,,,0.04,meteohub,2013-09-22 15:21:00,
2013-09-22 11:27:00,71.6,64.4,31.03,South,173,9.0,13.0,78,0.00,,,0.04,meteohub,2013-09-22 15:27:00,
2013-09-22 11:32:00,71.6,63.3,31.03,SSE,161,9.0,13.0,75,0.00,,,0.04,meteohub,2013-09-22 15:32:00,
2013-09-22 11:37:00,71.4,62.8,31.03,SSE,166,9.0,13.0,74,0.00,,,0.04,meteohub,2013-09-22 15:37:00,
2013-09-22 11:42:00,71.1,59.9,31.03,South,169,6.0,12.0,68,0.00,,,0.04,meteohub,2013-09-22 15:42:00,
2013-09-22 11:47:00,71.1,58.6,31.03,South,187,8.0,12.0,65,0.00,,,0.04,meteohub,2013-09-22 15:47:00,
2013-09-22 11:53:00,71.1,58.6,31.03,South,181,8.0,12.0,65,0.00,,,0.04,meteohub,2013-09-22 15:53:00,
2013-09-22 11:58:00,71.6,60.8,31.03,SSE,162,8.0,12.0,69,0.00,,,0.04,meteohub,2013-09-22 15:58:00,
2013-09-22 12:03:00,71.6,59.7,31.03,SSE,158,9.0,12.0,66,0.00,,,0.04,meteohub,2013-09-22 16:03:00,
2013-09-22 12:08:00,71.4,58.1,31.03,SE,141,8.0,10.0,63,0.00,,,0.04,meteohub,2013-09-22 16:08:00,
2013-09-22 12:14:00,71.6,58.8,31.03,SSE,165,8.0,10.0,64,0.00,,,0.04,meteohub,2013-09-22 16:14:00,
2013-09-22 12:19:00,71.4,57.7,31.03,South,174,9.0,9.0,62,0.00,,,0.04,meteohub,2013-09-22 16:19:00,
2013-09-22 12:24:00,71.6,57.9,31.03,SSE,164,8.0,9.0,62,0.00,,,0.04,meteohub,2013-09-22 16:24:00,
2013-09-22 12:30:00,71.4,56.8,31.03,SSE,165,6.0,9.0,60,0.00,,,0.04,meteohub,2013-09-22 16:30:00,
2013-09-22 12:35:00,71.6,55.6,31.03,South,187,8.0,11.0,57,0.00,,,0.04,meteohub,2013-09-22 16:35:00,
2013-09-22 12:40:00,72.3,58.1,31.03,South,169,8.0,11.0,61,0.00,,,0.04,meteohub,2013-09-22 16:40:00,
2013-09-22 12:45:00,72.7,56.5,31.03,South,181,8.0,11.0,57,0.00,,,0.04,meteohub,2013-09-22 16:45:00,
2013-09-22 12:51:00,72.5,55.9,31.03,SSE,164,9.0,11.0,56,0.00,,,0.04,meteohub,2013-09-22 16:51:00,
2013-09-22 12:56:00,72.1,55.0,31.03,South,183,8.0,11.0,55,0.00,,,0.04,meteohub,2013-09-22 16:56:00,
2013-09-22 13:01:00,71.8,54.7,31.03,SSE,161,9.0,9.0,55,0.00,,,0.04,meteohub,2013-09-22 17:01:00,
2013-09-22 13:06:00,71.6,54.5,31.03,South,188,6.0,9.0,55,0.00,,,0.04,meteohub,2013-09-22 17:06:00,
2013-09-22 13:11:00,71.6,55.6,31.03,SW,232,3.0,9.0,57,0.00,,,0.04,meteohub,2013-09-22 17:11:00,
2013-09-22 13:17:00,71.4,55.4,31.03,WSW,257,3.0,9.0,57,0.00,,,0.04,meteohub,2013-09-22 17:17:00,
2013-09-22 13:22:00,70.3,52.3,31.03,SSW,209,6.0,9.0,53,0.00,,,0.04,meteohub,2013-09-22 17:22:00,
2013-09-22 13:27:00,70.3,52.3,31.03,WSW,251,8.0,8.0,53,0.00,,,0.04,meteohub,2013-09-22 17:27:00,
2013-09-22 13:32:00,68.7,48.2,31.03,SSW,213,5.0,8.0,48,0.00,,,0.04,meteohub,2013-09-22 17:32:00,
2013-09-22 13:37:00,68.2,47.7,31.03,SW,217,6.0,10.0,48,0.00,,,0.04,meteohub,2013-09-22 17:37:00,
2013-09-22 13:42:00,68.2,48.4,31.03,West,261,7.0,10.0,49,0.00,,,0.04,meteohub,2013-09-22 17:42:00,
2013-09-22 13:47:00,68.5,49.1,31.03,West,272,5.0,10.0,50,0.00,,,0.04,meteohub,2013-09-22 17:47:00,
2013-09-22 13:52:00,68.5,49.1,31.03,WNW,288,3.0,10.0,50,0.00,,,0.04,meteohub,2013-09-22 17:52:00,
2013-09-22 13:57:00,68.7,49.3,31.03,West,279,4.0,8.0,50,0.00,,,0.04,meteohub,2013-09-22 17:57:00,
2013-09-22 14:02:00,68.9,49.5,31.03,WNW,283,4.0,8.0,50,0.00,,,0.04,meteohub,2013-09-22 18:02:00,
2013-09-22 14:07:00,68.9,50.0,31.03,WNW,299,3.0,6.0,51,0.00,,,0.04,meteohub,2013-09-22 18:07:00,
2013-09-22 14:12:00,69.1,50.2,31.03,WNW,301,4.0,6.0,51,0.00,,,0.04,meteohub,2013-09-22 18:12:00,
2013-09-22 14:18:00,69.1,49.6,31.03,WNW,294,4.0,5.0,50,0.00,,,0.04,meteohub,2013-09-22 18:18:00,
2013-09-22 14:23:00,69.3,49.8,31.03,WNW,296,3.0,5.0,50,0.00,,,0.04,meteohub,2013-09-22 18:23:00,
2013-09-22 14:29:00,69.4,50.0,31.03,WNW,298,3.0,6.0,50,0.00,,,0.04,meteohub,2013-09-22 18:29:00,
2013-09-22 14:34:00,69.6,49.6,31.03,WNW,291,4.0,7.0,49,0.00,,,0.04,meteohub,2013-09-22 18:34:00,
2013-09-22 14:39:00,69.6,49.6,31.03,WNW,289,3.0,7.0,49,0.00,,,0.04,meteohub,2013-09-22 18:39:00,
2013-09-22 14:45:00,69.8,49.3,31.03,WNW,294,5.0,7.0,48,0.00,,,0.04,meteohub,2013-09-22 18:45:00,
2013-09-22 14:50:00,70.2,49.6,31.03,WNW,283,4.0,7.0,48,0.00,,,0.04,meteohub,2013-09-22 18:50:00,
2013-09-22 14:55:00,70.2,48.4,31.03,WNW,301,3.0,6.0,46,0.00,,,0.04,meteohub,2013-09-22 18:55:00,
2013-09-22 15:00:00,70.5,49.3,31.03,WNW,298,0.0,6.0,47,0.00,,,0.04,meteohub,2013-09-22 19:00:00,
2013-09-22 15:06:00,70.2,47.8,31.03,West,264,0.0,5.0,45,0.00,,,0.04,meteohub,2013-09-22 19:06:00,
2013-09-22 15:11:00,70.3,48.6,31.03,SW,218,3.0,5.0,46,0.00,,,0.04,meteohub,2013-09-22 19:11:00,
2013-09-22 15:16:00,70.3,48.6,31.03,WSW,237,3.0,4.0,46,0.00,,,0.04,meteohub,2013-09-22 19:16:00,
2013-09-22 15:21:00,70.5,49.3,31.03,SW,226,4.0,4.0,47,0.00,,,0.04,meteohub,2013-09-22 19:21:00,
2013-09-22 15:26:00,71.2,48.2,31.03,SW,217,0.0,5.0,44,0.00,,,0.04,meteohub,2013-09-22 19:26:00,
2013-09-22 15:32:00,72.0,48.2,31.03,WNW,290,4.0,5.0,43,0.00,,,0.04,meteohub,2013-09-22 19:32:00,
2013-09-22 15:37:00,72.3,47.3,31.03,West,259,0.0,5.0,41,0.00,,,0.04,meteohub,2013-09-22 19:37:00,
2013-09-22 15:42:00,72.7,48.2,31.03,West,276,0.0,5.0,42,0.00,,,0.04,meteohub,2013-09-22 19:42:00,
2013-09-22 15:47:00,72.5,47.5,31.03,WNW,292,2.0,4.0,41,0.00,,,0.04,meteohub,2013-09-22 19:47:00,
2013-09-22 15:52:00,72.0,46.9,31.03,South,189,0.0,4.0,41,0.00,,,0.04,meteohub,2013-09-22 19:52:00,
2013-09-22 15:57:00,71.6,47.3,31.03,SE,133,3.0,3.0,42,0.00,,,0.04,meteohub,2013-09-22 19:57:00,
2013-09-22 16:02:00,71.4,47.8,31.03,SE,133,3.0,3.0,43,0.00,,,0.04,meteohub,2013-09-22 20:02:00,
2013-09-22 16:07:00,71.1,47.5,31.03,ENE,60,4.0,4.0,43,0.00,,,0.04,meteohub,2013-09-22 20:07:00,
2013-09-22 16:12:00,70.9,47.8,31.03,ESE,103,0.0,4.0,44,0.00,,,0.04,meteohub,2013-09-22 20:12:00,
2013-09-22 16:17:00,70.7,47.7,31.03,ENE,76,0.0,5.0,44,0.00,,,0.04,meteohub,2013-09-22 20:17:00,
2013-09-22 16:22:00,70.7,48.4,31.03,ENE,78,2.0,5.0,45,0.00,,,0.04,meteohub,2013-09-22 20:22:00,
2013-09-22 16:27:00,70.7,48.4,31.03,East,80,4.0,5.0,45,0.00,,,0.04,meteohub,2013-09-22 20:27:00,
2013-09-22 16:32:00,71.1,48.6,31.03,East,94,4.0,5.0,45,0.00,,,0.04,meteohub,2013-09-22 20:32:00,
2013-09-22 16:37:00,70.9,48.6,31.03,East,86,3.0,4.0,45,0.00,,,0.04,meteohub,2013-09-22 20:37:00,
2013-09-22 16:42:00,71.1,48.6,31.03,ESE,104,0.0,4.0,45,0.00,,,0.04,meteohub,2013-09-22 20:42:00,
2013-09-22 16:47:00,71.1,48.6,31.03,East,94,4.0,5.0,45,0.00,,,0.04,meteohub,2013-09-22 20:47:00,
2013-09-22 16:53:00,71.4,48.9,31.03,East,99,4.0,5.0,45,0.00,,,0.04,meteohub,2013-09-22 20:53:00,
2013-09-22 16:58:00,71.6,49.1,31.03,ESE,114,4.0,6.0,45,0.00,,,0.04,meteohub,2013-09-22 20:58:00,
2013-09-22 17:03:00,71.8,48.7,31.03,East,85,3.0,6.0,44,0.00,,,0.04,meteohub,2013-09-22 21:03:00,
2013-09-22 17:08:00,71.1,47.5,31.03,East,101,3.0,6.0,43,0.00,,,0.04,meteohub,2013-09-22 21:08:00,
2013-09-22 17:14:00,70.7,47.7,31.03,ESE,108,4.0,6.0,44,0.00,,,0.04,meteohub,2013-09-22 21:14:00,
2013-09-22 17:19:00,70.7,48.9,31.03,ESE,103,4.0,6.0,46,0.00,,,0.04,meteohub,2013-09-22 21:19:00,
2013-09-22 17:24:00,70.5,48.2,31.03,East,101,3.0,6.0,45,0.00,,,0.04,meteohub,2013-09-22 21:24:00,
2013-09-22 17:30:00,70.2,48.4,31.03,East,94,5.0,6.0,46,0.00,,,0.04,meteohub,2013-09-22 21:30:00,
2013-09-22 17:35:00,69.8,48.0,31.03,ESE,107,5.0,6.0,46,0.00,,,0.04,meteohub,2013-09-22 21:35:00,
2013-09-22 17:40:00,70.0,49.5,31.03,East,94,4.0,5.0,48,0.00,,,0.04,meteohub,2013-09-22 21:40:00,
2013-09-22 17:45:00,70.0,49.5,31.03,ENE,74,3.0,6.0,48,0.00,,,0.04,meteohub,2013-09-22 21:45:00,
2013-09-22 17:50:00,70.2,49.6,31.03,East,86,3.0,6.0,48,0.00,,,0.04,meteohub,2013-09-22 21:50:00,
2013-09-22 17:56:00,70.0,49.5,31.03,East,88,4.0,5.0,48,0.00,,,0.04,meteohub,2013-09-22 21:56:00,
2013-09-22 18:01:00,70.0,49.5,31.03,ESE,103,5.0,5.0,48,0.00,,,0.04,meteohub,2013-09-22 22:01:00,
2013-09-22 18:06:00,69.8,49.3,31.03,South,175,0.0,5.0,48,0.00,,,0.04,meteohub,2013-09-22 22:06:00,
2013-09-22 18:12:00,69.8,49.3,31.03,SSW,199,3.0,5.0,48,0.00,,,0.04,meteohub,2013-09-22 22:12:00,
2013-09-22 18:17:00,69.4,48.4,31.03,SW,217,5.0,5.0,47,0.00,,,0.04,meteohub,2013-09-22 22:17:00,
2013-09-22 18:22:00,69.1,48.6,31.03,SSW,209,5.0,5.0,48,0.00,,,0.04,meteohub,2013-09-22 22:22:00,
2013-09-22 18:27:00,68.7,48.2,31.03,SSW,213,4.0,5.0,48,0.00,,,0.04,meteohub,2013-09-22 22:27:00,
2013-09-22 18:32:00,68.5,48.6,31.03,SSW,211,4.0,6.0,49,0.00,,,0.04,meteohub,2013-09-22 22:32:00,
2013-09-22 18:37:00,68.4,48.9,31.03,SSW,211,4.0,6.0,50,0.00,,,0.04,meteohub,2013-09-22 22:37:00,
2013-09-22 18:42:00,68.2,49.8,31.03,SW,224,5.0,6.0,52,0.00,,,0.04,meteohub,2013-09-22 22:42:00,
2013-09-22 18:47:00,67.8,48.6,31.03,SW,219,8.0,8.0,50,0.00,,,0.04,meteohub,2013-09-22 22:47:00,
2013-09-22 18:52:00,67.6,47.8,31.03,WNW,285,4.0,6.0,49,0.00,,,0.04,meteohub,2013-09-22 22:52:00,
2013-09-22 18:58:00,67.6,47.3,31.03,SSW,205,9.0,9.0,48,0.00,,,0.04,meteohub,2013-09-22 22:58:00,
2013-09-22 19:02:00,66.9,43.7,31.03,SW,226,3.0,8.0,43,0.00,,,0.04,meteohub,2013-09-22 23:02:00,
2013-09-22 19:08:00,66.6,43.3,31.03,WSW,243,6.0,11.0,43,0.00,,,0.04,meteohub,2013-09-22 23:08:00,
2013-09-22 19:13:00,66.4,43.2,31.03,SW,217,6.0,11.0,43,0.00,,,0.04,meteohub,2013-09-22 23:13:00,
2013-09-22 19:18:00,66.0,42.8,31.03,SSW,213,4.0,11.0,43,0.00,,,0.04,meteohub,2013-09-22 23:18:00,
2013-09-22 19:23:00,65.5,40.5,31.03,SSW,205,6.0,11.0,40,0.00,,,0.04,meteohub,2013-09-22 23:23:00,
2013-09-22 19:29:00,65.3,41.0,31.03,South,189,3.0,10.0,41,0.00,,,0.04,meteohub,2013-09-22 23:29:00,
2013-09-22 19:34:00,64.9,40.1,31.03,SSW,211,5.0,10.0,40,0.00,,,0.04,meteohub,2013-09-22 23:34:00,
2013-09-22 19:39:00,64.6,39.0,31.03,SW,221,8.0,10.0,39,0.00,,,0.04,meteohub,2013-09-22 23:39:00,
2013-09-22 19:45:00,64.4,39.6,31.03,SW,236,4.0,8.0,40,0.00,,,0.04,meteohub,2013-09-22 23:45:00,
2013-09-22 19:50:00,64.2,40.1,31.03,SW,218,4.0,8.0,41,0.00,,,0.04,meteohub,2013-09-22 23:50:00,
2013-09-22 19:55:00,64.0,39.9,31.03,SSW,205,6.0,8.0,41,0.00,,,0.04,meteohub,2013-09-22 23:55:00,
2013-09-22 20:01:00,63.5,37.4,31.03,SSW,212,8.0,8.0,38,0.00,,,0.04,meteohub,2013-09-23 00:01:00,
2013-09-22 20:06:00,63.5,38.1,31.03,SSW,206,5.0,11.0,39,0.00,,,0.04,meteohub,2013-09-23 00:06:00,
2013-09-22 20:11:00,63.5,37.4,31.03,SW,217,5.0,11.0,38,0.00,,,0.04,meteohub,2013-09-23 00:11:00,
2013-09-22 20:16:00,63.1,37.0,31.03,SSW,210,8.0,11.0,38,0.00,,,0.04,meteohub,2013-09-23 00:16:00,
2013-09-22 20:22:00,63.0,37.0,31.03,SSW,213,8.0,11.0,38,0.00,,,0.04,meteohub,2013-09-23 00:22:00,
2013-09-22 20:27:00,62.8,36.9,31.03,SSW,208,8.0,10.0,38,0.00,,,0.04,meteohub,2013-09-23 00:27:00,
2013-09-22 20:32:00,62.6,36.0,31.03,SSW,205,5.0,10.0,37,0.00,,,0.04,meteohub,2013-09-23 00:32:00,
2013-09-22 20:37:00,62.4,36.5,31.03,SSW,201,7.0,9.0,38,0.00,,,0.04,meteohub,2013-09-23 00:37:00,
2013-09-22 20:42:00,62.4,35.8,31.03,SSW,210,4.0,9.0,37,0.00,,,0.04,meteohub,2013-09-23 00:42:00,
2013-09-22 20:47:00,62.2,35.6,31.03,WSW,237,6.0,9.0,37,0.00,,,0.04,meteohub,2013-09-23 00:47:00,
2013-09-22 20:52:00,62.2,35.6,31.03,SSW,197,8.0,9.0,37,0.00,,,0.04,meteohub,2013-09-23 00:52:00,
2013-09-22 20:57:00,61.9,34.7,31.03,SW,214,9.0,10.0,36,0.00,,,0.04,meteohub,2013-09-23 00:57:00,
2013-09-22 21:02:00,61.9,35.2,31.03,SSW,207,8.0,10.0,37,0.00,,,0.04,meteohub,2013-09-23 01:02:00,
2013-09-22 21:07:00,61.9,35.2,31.03,SSW,207,8.0,10.0,37,0.00,,,0.04,meteohub,2013-09-23 01:07:00,
2013-09-22 21:12:00,61.7,34.5,31.03,SW,214,6.0,10.0,36,0.00,,,0.04,meteohub,2013-09-23 01:12:00,
2013-09-22 21:17:00,61.7,34.5,31.03,SSW,199,8.0,10.0,36,0.00,,,0.04,meteohub,2013-09-23 01:17:00,
2013-09-22 21:22:00,61.5,35.6,31.03,SSW,209,4.0,10.0,38,0.00,,,0.04,meteohub,2013-09-23 01:22:00,
2013-09-22 21:27:00,61.3,35.6,31.03,SW,219,4.0,10.0,38,0.00,,,0.04,meteohub,2013-09-23 01:27:00,
2013-09-22 21:32:00,61.3,35.6,31.03,SSW,209,5.0,10.0,38,0.00,,,0.04,meteohub,2013-09-23 01:32:00,
2013-09-22 21:37:00,61.5,35.6,31.03,WSW,242,5.0,11.0,38,0.00,,,0.04,meteohub,2013-09-23 01:37:00,
2013-09-22 21:42:00,61.5,35.6,31.03,SSW,201,6.0,11.0,38,0.00,,,0.04,meteohub,2013-09-23 01:42:00,
2013-09-22 21:47:00,61.5,35.1,31.03,SW,217,8.0,11.0,37,0.00,,,0.04,meteohub,2013-09-23 01:47:00,
2013-09-22 21:52:00,61.3,34.9,31.03,WSW,238,9.0,11.0,37,0.00,,,0.04,meteohub,2013-09-23 01:52:00,
2013-09-22 21:58:00,61.3,34.9,31.03,SW,223,11.0,11.0,37,0.00,,,0.04,meteohub,2013-09-23 01:58:00,
2013-09-22 22:03:00,61.3,34.9,31.03,WSW,247,8.0,11.0,37,0.00,,,0.04,meteohub,2013-09-23 02:03:00,
2013-09-22 22:08:00,61.3,34.9,31.03,SW,234,12.0,12.0,37,0.00,,,0.04,meteohub,2013-09-23 02:08:00,
2013-09-22 22:13:00,61.3,34.2,31.03,WSW,239,10.0,12.0,36,0.00,,,0.04,meteohub,2013-09-23 02:13:00,
2013-09-22 22:19:00,61.2,34.7,31.03,SW,222,6.0,12.0,37,0.00,,,0.04,meteohub,2013-09-23 02:19:00,
2013-09-22 22:24:00,61.2,34.7,31.03,SSW,211,8.0,12.0,37,0.00,,,0.04,meteohub,2013-09-23 02:24:00,
2013-09-22 22:29:00,61.2,34.7,31.03,SSW,204,6.0,14.0,37,0.00,,,0.04,meteohub,2013-09-23 02:29:00,
2013-09-22 22:35:00,61.0,35.2,31.03,WSW,251,8.0,14.0,38,0.00,,,0.04,meteohub,2013-09-23 02:35:00,
2013-09-22 22:40:00,61.0,35.8,31.03,SW,228,8.0,11.0,39,0.00,,,0.04,meteohub,2013-09-23 02:40:00,
2013-09-22 22:45:00,61.0,34.5,31.03,WSW,257,8.0,11.0,37,0.00,,,0.04,meteohub,2013-09-23 02:45:00,
2013-09-22 22:50:00,61.0,34.5,31.03,WSW,256,5.0,11.0,37,0.00,,,0.04,meteohub,2013-09-23 02:50:00,
2013-09-22 22:56:00,61.2,34.7,31.03,WSW,252,4.0,16.0,37,0.00,,,0.04,meteohub,2013-09-23 02:56:00,
2013-09-22 23:01:00,61.2,35.4,31.03,WNW,292,6.0,16.0,38,0.00,,,0.04,meteohub,2013-09-23 03:01:00,
2013-09-22 23:06:00,61.2,35.4,31.03,West,263,6.0,16.0,38,0.00,,,0.04,meteohub,2013-09-23 03:06:00,
2013-09-22 23:12:00,61.0,35.8,31.03,WSW,239,13.0,16.0,39,0.00,,,0.04,meteohub,2013-09-23 03:12:00,
2013-09-22 23:17:00,61.0,35.2,31.03,West,277,14.0,14.0,38,0.00,,,0.04,meteohub,2013-09-23 03:17:00,
2013-09-22 23:22:00,60.8,34.3,31.03,West,274,11.0,13.0,37,0.00,,,0.04,meteohub,2013-09-23 03:22:00,
2013-09-22 23:27:00,60.8,35.1,31.03,WSW,256,8.0,15.0,38,0.00,,,0.04,meteohub,2013-09-23 03:27:00,
2013-09-22 23:32:00,60.8,35.6,31.03,WNW,289,8.0,15.0,39,0.00,,,0.04,meteohub,2013-09-23 03:32:00,
2013-09-22 23:38:00,60.6,36.1,31.03,SW,224,8.0,13.0,40,0.00,,,0.04,meteohub,2013-09-23 03:38:00,
2013-09-22 23:44:00,60.4,36.0,31.03,West,274,9.0,13.0,40,0.00,,,0.04,meteohub,2013-09-23 03:44:00,
2013-09-22 23:49:00,60.4,35.4,31.03,West,272,7.0,13.0,39,0.00,,,0.04,meteohub,2013-09-23 03:49:00,
2013-09-22 23:54:00,60.3,35.2,31.03,WSW,253,4.0,15.0,39,0.00,,,0.04,meteohub,2013-09-23 03:54:00,